Flag for Norway Weather past 2 weeks in Eidsvoll, Norway

Now
34 °F

Passing clouds.


Feels Like: 31 °F
Forecast: 38 / 58 °F
Wind: 3 mph from Northeast

Location: Oslo Gardermoen Airport


UV Index: 0 (Low)

Visibility: N/A


Pressure: 30.30 "Hg

Humidity: 75%

Dew point: 27 °F

Location of EidsvollLocation

Historic Weather in Eidsvoll

°F

Eidsvoll temperature yesterday

Maximum temperature yesterday: 54 °F (at 4:50 PM)
Minimum temperature yesterday: 28 °F (at 5:20 AM)
Average temperature yesterday: 42 °F

Past Weeks' High & Low Weather Summary

 TemperatureHumidityPressure
High66 °F (Apr 21, 4:50 PM)100% (Apr 10, 10:20 PM)30.51 "Hg (Apr 10, 10:20 PM)
Low27 °F (Apr 16, 6:20 AM)24% (Apr 24, 3:50 PM)29.30 "Hg (Apr 13, 4:20 AM)
Average44 °F60%29.99 "Hg
* Reported Apr 10 6:20 AM — Apr 25 6:50 AM, Eidsvoll, Weather by CustomWeather, © 2014

Note: Actual official high and low records may vary slightly from our data, if they occured in-between our weather recording intervals... More about our weather records

Advertising

Historic Weather Conditions — Data for Previous 24 hours

 ConditionsComfort  
Time TempWeatherWind HumidityBarometerVisibility
6:50 AM
Apr 25
34 °FSunny.5 mph75%30.30 "Hg10 mi
6:20 AM32 °FClear.2 mph75%30.30 "Hg10 mi
5:50 AM30 °FClear.2 mph86%30.30 "Hg10 mi
5:20 AM30 °FClear.3 mph80%30.30 "Hg10 mi
4:50 AM32 °FClear.6 mph80%30.30 "Hg10 mi
4:20 AM32 °FClear.5 mph75%30.30 "Hg10 mi
3:50 AM32 °FClear.5 mph75%30.30 "Hg10 mi
3:20 AM34 °FClear.5 mph70%30.30 "Hg10 mi
2:50 AM34 °FClear.3 mph65%30.33 "Hg10 mi
2:20 AM34 °FClear.2 mph65%30.33 "Hg10 mi
1:50 AM34 °FClear.2 mph65%30.33 "Hg10 mi
1:20 AM36 °FClear.3 mph60%30.33 "Hg10 mi
12:50 AM37 °FClear.2 mph56%30.33 "Hg10 mi
12:20 AM37 °FClear.3 mph56%30.33 "Hg10 mi
11:50 PM
Apr 24
37 °FClear.5 mph56%30.33 "Hg10 mi
11:20 PM39 °FClear.6 mph56%30.33 "Hg10 mi
10:50 PM39 °FClear.7 mph56%30.33 "Hg10 mi
10:20 PM43 °FPassing clouds.5 mph49%30.33 "HgN/A
9:50 PM45 °FPassing clouds.3 mph46%30.33 "HgN/A
9:20 PM48 °FSunny.No wind34%30.33 "Hg10 mi
8:50 PM50 °FSunny.No wind32%30.33 "Hg10 mi
8:20 PM52 °FSunny.No wind28%30.33 "Hg10 mi
7:50 PM52 °FSunny.5 mph28%30.33 "Hg10 mi
7:20 PM54 °FSunny.3 mph24%30.33 "Hg10 mi
6:50 PM54 °FSunny.3 mph24%30.33 "Hg10 mi
6:20 PM54 °FSunny.3 mph24%30.36 "Hg10 mi
5:50 PM52 °FPassing clouds.3 mph26%30.36 "HgN/A
5:20 PM54 °FSunny.6 mph24%30.36 "Hg10 mi
4:50 PM54 °FSunny.2 mph26%30.39 "Hg10 mi
4:20 PM52 °FPassing clouds.8 mph26%30.39 "HgN/A
3:50 PM52 °FSunny.6 mph24%30.42 "Hg10 mi
3:20 PM50 °FSunny.6 mph28%30.42 "Hg10 mi
2:50 PM50 °FSunny.7 mph28%30.42 "Hg10 mi
2:20 PM50 °FSunny.2 mph25%30.45 "Hg10 mi
1:50 PM48 °FSunny.5 mph29%30.45 "Hg10 mi
1:20 PM48 °FPassing clouds.7 mph27%30.45 "HgN/A
12:50 PM46 °FSunny.3 mph29%30.48 "Hg10 mi
12:20 PM46 °FPassing clouds.5 mph34%30.48 "HgN/A
11:50 AM45 °FSunny.3 mph37%30.48 "Hg10 mi
11:20 AM45 °FSunny.3 mph39%30.48 "Hg10 mi
10:50 AM43 °FPassing clouds.5 mph42%30.48 "HgN/A
10:20 AM41 °FPassing clouds.5 mph45%30.51 "HgN/A
9:50 AM41 °FPassing clouds.3 mph49%30.51 "HgN/A
9:20 AM39 °FSunny.5 mph52%30.51 "Hg10 mi
8:50 AM39 °FPassing clouds.3 mph52%30.51 "HgN/A
8:20 AM37 °FSunny.3 mph56%30.51 "Hg10 mi
Weather by CustomWeather, © 2014

See weather overview